Regional Weather Roundup
Issued by NWS Wakefield, VA

Home | Current Version | Previous Version | Graphics & Text | Print | Product List | Glossary On
Versions: 1 2 3 4 5 6 7 8 9 10 11 12 13 14 15 16 17 18 19 20 21 22 23 24 25 26 27 28
000
ASUS41 KAKQ 222110
RWRAKQ

REGIONAL WEATHER ROUNDUP
NATIONAL WEATHER SERVICE WAKEFIELD VA
500 PM EDT TUE APR 22 2014

Note: "fair" indicates few or no clouds below 12,000 feet with no
significant weather and/or obstructions to visibility. * = Denotes
station may not report precipitation (e.g., rain,snow,etc.),
thunder or fog.

VAZ042-051-052>054-056-222200-
NORTHERN VIRGINIA

CITY           SKY/WX    TMP DP  RH WIND       PRES   REMARKS
WASH NATIONAL  CLOUDY    67  57  70 S10       29.61F
DULLES         CLOUDY    71  54  54 VRB3      29.61F
FORT BELVOIR   CLOUDY    69  57  64 SE2       29.61F
QUANTICO       CLOUDY    67  54  63 E9        29.61F
FREDERICKSBRG* CLOUDY    77  50  38 W7        29.59F
STAFFORD*      CLOUDY    75  54  46 NW8       29.64F
WARRENTON      CLOUDY    75  58  55 W6        29.60F
CULPEPER*      PTSUNNY   75  48  38 SW6       29.61F
MANASSAS*      CLOUDY    73  55  53 SW3       29.61S
LEESBURG*      CLOUDY    70  57  64 W6        29.62S
WINCHESTER     CLOUDY    68  50  52 W8        29.63R
$$

VAZ048-049-060>072-079>083-222200-
CENTRAL AND SOUTH CENTRAL VIRGINIA...AND NORTH CENTRAL NORTH CAROLINA

CITY           SKY/WX    TMP DP  RH WIND       PRES   REMARKS
RICHMOND       CLOUDY    76  50  40 NW7       29.61F
CHESTERFIELD*  NOT AVBL
HANOVER        LGT RAIN  74  54  49 NW6       29.63F
TAPPAHANNOCK*  CLOUDY    75  47  37 SW6       29.61F
CHARLOTTSVILLE PTSUNNY   74  49  41 W12       29.61F
ORANGE*        PTSUNNY   73  50  43 SW8       29.63S
LOUISA*        CLOUDY    75  52  43 W6        29.60F
FARMVILLE*     PTSUNNY   79  48  34 SW9G17    29.61S
SOUTH HILL*    LGT RAIN  68  59  73 NW13G25   29.73R
ROANOKE RAPIDS MOCLDY    81  46  30 W13G20    29.62F
RALEIGH        CLOUDY    77  48  35 W13G18    29.68S
$$

VAZ088>098-222200-
SOUTHEAST VIRGINIA

CITY           SKY/WX    TMP DP  RH WIND       PRES   REMARKS
NORFOLK        MOSUNNY   82  45  27 VRB6      29.60F
VIRGINIA BEACH PTSUNNY   83  48  29 W10       29.60F
NORFOLK NAVAL  PTSUNNY   83  48  29 W6        29.61F
WEST POINT*    CLOUDY    77  46  33 NW7       29.63S
NEWPORT NEWS   CLOUDY    82  48  30 SW7       29.60F
LANGLEY AFB    PTSUNNY   78  50  36 W9        29.60F
FORT EUSTIS    CLOUDY    78  55  45 W3        29.58F
WILLIAMSBURG*  PTSUNNY   81  52  36 NW12G21   29.61S
FRANKLIN*      PTSUNNY   82  46  28 SW5       29.61F
WAKEFIELD      PTSUNNY   81  47  30 W7        29.61S
$$

VAZ020-022-025-037-045-222200-
WESTERN AND SOUTHWEST VIRGINIA

CITY           SKY/WX    TMP DP  RH WIND       PRES   REMARKS
STAUNTON*      PTSUNNY   71  47  42 W7        29.66F
HOT SPRINGS VA CLOUDY    57  46  67 W13       29.79S
LYNCHBURG      CLOUDY    80  50  34 W9        29.67F
DANVILLE       CLOUDY    69  61  75 SW7       29.69F
MARTINSVILLE   CLOUDY    73  57  57 W3        29.73S
ROANOKE        CLOUDY    71  50  47 W15G21    29.71F
BLACKSBURG     CLOUDY    64  55  72 W7        29.77F
DUBLIN*        CLOUDY    64  52  66 W7        29.77F
MARION*        CLOUDY    58  56  91 SW9       29.83S
HILLSVILLE*    CLOUDY    61  48  63 W12       29.82S
RICHLANDS*     CLOUDY    63  57  81 SW5       29.80F
WISE*          PTSUNNY   66  50  55 W5        29.82F
ABINGDON*      CLOUDY    65  57  75 W8        29.81F
$$

MDZ021>025-VAZ099-100-222200-
SOUTHERN MARYLAND AND THE DELMARVA PENINSULA

CITY           SKY/WX    TMP DP  RH WIND       PRES   REMARKS
PATUXENT RIVER PTSUNNY   66  53  63 CALM      29.61F
BAY BRIDGE APT CLOUDY    64  54  68 CALM      29.61F
LEONARDTOWN    CLOUDY    70  46  43 W5        29.63F
DOVER          LGT RAIN  67  54  63 W14       29.57F
GEORGETOWN     CLOUDY    74  46  36 NW9G17    29.60S
EASTON         CLOUDY    68  55  64 NW6       29.65F
CAMBRIDGE      PTSUNNY   70  50  49 NW6       29.62R
SALISBURY      PTSUNNY   75  48  38 W9        29.60F
OCEAN CITY     MOSUNNY   62  52  69 SW8       29.61S
WALLOPS ISLAND PTSUNNY   66  53  63 S12       29.62S
ACCOMACK*      PTSUNNY   73  48  40 S7        29.60F
$$

NCZ012>017-030>032-222200-
EASTERN NORTH CAROLINA

CITY           SKY/WX    TMP DP  RH WIND       PRES   REMARKS
ELIZABETH CITY MOSUNNY   80  52  37 S14       29.62F
AHOSKIE*       MOSUNNY   79  51  37 CALM      29.63S
EDENTON*       MOSUNNY   80  50  34 SW10      29.64S
CURRITUCK*     MOSUNNY   82  48  30 S8        29.63S
KILL DEVIL HLS MOSUNNY   73  55  53 S5        29.64F
MANTEO         MOSUNNY   69  56  62 S15       29.65F
CAPE HATTERAS  MOSUNNY   62  32  32 SW13      29.69F
GOLDSBORO      PTSUNNY   83  50  31 SW15      29.65F
WASHINGTON     SUNNY     82  45  27 W10G16    29.65S
GREENVILLE     PTSUNNY   81  52  36 W7        29.69S
NEW BERN       SUNNY     82  50  32 S13       29.67F
WILMINGTON     SUNNY     79  52  38 S18G25    29.70S
$$

VAZ048-222200-
ELSEWHERE

CITY           SKY/WX    TMP DP  RH WIND       PRES   REMARKS
HARRISBURG PA  PTSUNNY   68  54  60 CALM      29.56F
BALTIMORE      CLOUDY    68  55  63 W5        29.60F
ANNAPOLIS      CLOUDY    69  55  60 VRB5      29.60F
ANDREWS AFB    CLOUDY    68  55  63 SW2       29.61F
WILMINGTON DE  CLOUDY    65  54  67 W9        29.60F
PHILADELPHIA   CLOUDY    69  51  52 W14       29.59S
WILDWOOD NJ*   CLOUDY    66  48  52 W7        29.61S
ATLANTIC CITY  PTSUNNY   65  47  52 S12       29.58S
HENDERSON NC   CLOUDY    73  49  42 NW15G37   29.68R
GREENSBORO     CLOUDY    69  54  58 W9        29.73F
ROCKY MOUNT    PTSUNNY   83  51  33 S10G17    29.65F
FAYETTEVILLE   PTSUNNY   83  49  30 SW12      29.67F
CHARLOTTE      LGT RAIN  66  59  78 NW5       29.78R
$$

VAZ100-222200-
MARINE

STATION/POSITION TIME  TEMP    WIND        PRES    WAVE   SWELL
                       AIR SEA DIR/SP/G            HT/PER HT/PER
                 (UTC) (F)     (DEG/KT/KT) (MB)    (FT/S) (FT/S)
44066 TX TWR #4  2100   51 47  200/  8/ 10 1002.7F   5/ 8   5/ 8
CAPE MAY NJ      2100   58 56  240/  3/  4 1002.2R
LEWES DE         2100   64 51  320/ 16/ 17 1001.5R
15NM E FENWICK I 2100   51 48              1002.3F   4/ 8
OCEAN-CITY-INLET 2100   52 50  210/ 12/ 14 1002.2S
WACHAPREAGUE VA  2100   62 58  210/ 10/ 12 1002.4F
THOMAS POINT MD  2100   63 56  160/  7/  8 1003.1F
GOOSES REEF MD   2100   60     180/  2/  4   N/A
COVE POINT MD    2100   62     210/  2/  3 1002.9F
SOLOMONS ISLAND  2100      57                N/A
BISHOPS HEAD MD  2100   62 64  260/  2/  4 1002.8R
PINEY POINT MD   2100          340/  7/  8   N/A
POTOMAC MD       2100   59      CALM  /  4 1002.5S
CAMBRIDGE MD     2100   66 56  290/  5/  8 1002.5S
RAPPAHANNOCK LGT 2100          170/ 12/ 13 1002.6S
STINGRAY PT      2100   60     180/  8/ 12 1002.5R
YORK RVR RNG VA  2100   76     220/  2/  3 1001.6F
YORKTOWN VA      2100   79 55  250/  6/  9 1001.9F
JAMESTOWN VA     2100   71     330/  8/ 12   N/A
DOMINION TERM VA 2100   76     300/  1/  3 1002.3F
KIPTOPEKE VA     2100      57  160/  6/  6   N/A
CHES BAY BRIDGE  2100   68 53   60/  4/  5 1002.3F
CAPE HENRY VA    2100   69      70/  5/  5   N/A
CHESAPEAKE LGHT  2000   54     180/ 23/ 23 1003.1F
WILLOUBY STN VA  2100   77     240/  6/  6 1001.6F
S CRANEY ISL VA  2100          260/  9/ 13 1002.4S
CAPE HENRY BUOY  2100      48                N/A     4/ 9   2/11
1ST LANDING BUOY 2100      49                N/A     3/ 9   3/ 9
64NM E OF VA BCH 2100   54 50  180/ 10/ 12 1003.9F   5/ 9   5/ 9
DUCK PIER NC     2100   73 48  200/ 12/ 15 1002.6F
44100 DUCK FRF   2100      50                N/A     3/ 9   2/11
44056 DUCK FRF   2100      54                N/A     3/ 8
OREGON INLET NC  2100   62 57  190/ 14/ 17 1004.5F
HATTERAS NC      2100   66 56  220/ 11/ 17 1005.6F
DIAMOND SHLS NC  2100   73 76  240/ 21/ 25 1004.8F   5/ 8   3/ 8
CAPE LOOKOUT NC  2000   68     210/ 13/ 17 1006.2F
FRYING PAN SHLS  2100   70 68  220/ 16/ 17 1006.8F   4/ 9   2/ 9
$$



USA.gov is the U.S. government's official web portal to all federal, state and local government web resources and services.